Flag for Austria Weather past 2 weeks in Eisenstadt, Burgenland, Austria

Now
66 °F

Overcast.


Feels Like: 66 °F
Forecast: 62 / 85 °F
Wind: 7 mph from Northwest

Location: Eisenstadt

Current Time: Aug 1, 2014 at 6:08:12 AM

Latest Report: Aug 1, 2014 at 5:00 AM


Visibility: 9 mi

Pressure: 29.86 "Hg

Humidity: 86%

Dew point: 62 °F

Location of EisenstadtLocation

Historic Weather in Eisenstadt — Graph

°F

Eisenstadt temperature yesterday

Maximum temperature yesterday: 75 °F (at 2:00 PM)
Minimum temperature yesterday: 65 °F (at 3:00 AM)
Average temperature yesterday: 69 °F

Past Weeks' High & Low Weather Summary

 TemperatureHumidityPressure
High91 °F (Jul 20, 4:00 PM)97% (Jul 29, 6:00 AM)30.09 "Hg (Jul 29, 6:00 AM)
Low60 °F (Jul 26, 4:00 AM)32% (Jul 17, 5:00 PM)29.65 "Hg (Jul 21, 6:00 PM)
Average72 °F73%29.86 "Hg
* Reported Jul 17 4:00 AM — Aug 1 4:00 AM, Eisenstadt, Weather by CustomWeather, © 2014

Note: Actual official high and low records may vary slightly from our data, if they occured in-between our weather recording intervals... More about our weather records

Advertising

Eisenstadt weather history for previous 24 hours

 ConditionsComfort  
Time TempWeatherWind HumidityBarometerVisibility
4:00 AM
Aug 1
66 °FPassing clouds.7 mph86%29.87 "Hg9 mi
3:00 AM66 °FMild.8 mph87%29.87 "HgN/A
2:00 AM66 °FPassing clouds.8 mph87%29.87 "Hg7 mi
1:00 AM66 °FMild.8 mph86%29.87 "HgN/A
12:00 AM67 °FMild.8 mph86%29.88 "HgN/A
11:00 PM
Jul 31
67 °FPassing clouds.8 mph87%29.87 "Hg6 mi
10:00 PM68 °FMild.8 mph86%29.85 "HgN/A
9:00 PM68 °FMild.8 mph90%29.85 "HgN/A
8:00 PM70 °FScattered clouds.7 mph83%29.84 "Hg12 mi
7:00 PM71 °FPartly sunny.6 mph82%29.83 "Hg12 mi
6:00 PM72 °FMild.6 mph82%29.81 "HgN/A
5:00 PM73 °FPartly sunny.3 mph81%29.80 "Hg12 mi
4:00 PM75 °FMild.5 mph74%29.81 "HgN/A
3:00 PM74 °FMild.3 mph76%29.81 "HgN/A
2:00 PM75 °FMild.2 mph74%29.80 "HgN/A
1:00 PM72 °FMild.3 mph77%29.82 "HgN/A
12:00 PM70 °FMild.3 mph85%29.82 "HgN/A
11:00 AM68 °FOvercast.2 mph88%29.82 "Hg7 mi
10:00 AM67 °FMild.3 mph90%29.81 "HgN/A
9:00 AM67 °FMild.2 mph91%29.79 "HgN/A
8:00 AM66 °FOvercast.2 mph91%29.78 "Hg7 mi
7:00 AM66 °FOvercast.1 mph92%29.77 "Hg7 mi
6:00 AM65 °FOvercast.2 mph94%29.76 "Hg6 mi
Weather by CustomWeather, © 2014

See weather overviewHow to use our weather pages